Regional Weather Roundup
Issued by NWS

Home | Current Version | Previous Version | Text Only | Print | Product List | Glossary Off
Versions: 1 2 3 4 5 6 7 8 9 10 11 12 13 14 15 16 17 18 19 20 21 22 23 24 25 26 27 28 29 30 31 32 33 34 35 36 37 38 39 40 41 42 43 44 45 46 47 48 49 50

000
ASUS45 KABQ 231810
RWRNM
NEW MEXICO REGIONAL WEATHER ROUNDUP
NATIONAL WEATHER SERVICE ALBUQUERQUE NM
1100 AM MST TUE JAN 23 2018

NOTE: "FAIR" MEANS FEW OR NO CLOUDS BELOW 12,000 FEET AGL WITH NO
       SIGNIFICANT WEATHER OR OBSTRUCTIONS TO VISION.

      THIS PRODUCT IS RELEASED AS TWO VERSIONS.  ONE VERSION NEAR
      THE TOP OF THE HOUR CONTAINING PRELIMINARY DATA FROM ALBUQUERQUE
      AND OTHER STATIONS.  A FINAL VERSION WITH ADDITIONAL DATA IS
      ISSUED ABOUT 10 MINUTES AFTER THE HOUR.

NMZ501-503-504-510>518-231900-
NORTHWEST PLATEAU/NORTHCENTRAL MOUNTAINS

CITY           SKY/WX    TMP DP  RH WIND       PRES   REMARKS
FARMINGTON     FAIR      25  13  60 VRB5      30.35S WCI  19
6HR MIN TEMP:   5; 6HR MAX TEMP:  25;

LOS ALAMOS     FAIR      28   6  38 NE8       30.27S WCI  20
SANTA FE       FAIR      30  11  45 N21       30.25F WCI  17
6HR MIN TEMP:  13; 6HR MAX TEMP:  30;

TAOS           FAIR      24  12  60 E3        30.31F
ANGEL FIRE     FAIR      12   5  73 CALM      30.25S

$$
NMZ402-403-502-505>509-231900-
WESTCENTRAL MOUNTAINS/SOUTHWEST MOUNTAINS

CITY           SKY/WX    TMP DP  RH WIND       PRES   REMARKS
GALLUP         FAIR      25  12  58 CALM      30.33R
6HR MIN TEMP:  -1; 6HR MAX TEMP:  25;

GRANTS         FAIR      33   4  29 N10G20    30.33S WCI  25
SILVER CITY    FAIR      46   2  16 E6        30.25S

$$
NMZ407-409-411-412-231900-
SOUTHERN DESERTS

CITY           SKY/WX    TMP DP  RH WIND       PRES   REMARKS
DEMING         FAIR      48   7  18 NE18      30.26S
6HR MIN TEMP:  15; 6HR MAX TEMP:  48;

LAS CRUCES     FAIR      46   7  20 E3        30.28R
HOLLOMAN AFB   FAIR      48   7  18 W7        30.30S
ALAMOGORDO     FAIR      45   1  16 NW3       30.29S
T OR C         FAIR      42   7  23 NE6       30.29F
6HR MIN TEMP:  22; 6HR MAX TEMP:  42;


$$
NMZ519>523-231900-
CENTRAL VALLEYS/CENTRAL HIGHLANDS

CITY           SKY/WX    TMP DP  RH WIND       PRES   REMARKS
ALBUQUERQUE    FAIR      33  10  38 N7        30.32S WCI  27
6HR MIN TEMP:  20; 6HR MAX TEMP:  34;

DOUBLE EAGLE   MOSUNNY   36  12  38 VRB6      30.31R WCI  31
MORIARTY ARPT  FAIR      38  12  34 N7        30.28F WCI  32
6HR MIN TEMP:   2; 6HR MAX TEMP:  38;

CLINES CORNERS FAIR      35   8  32 NW17      30.24S WCI  25
6HR MIN TEMP:  13; 6HR MAX TEMP:  35;

BELEN          FAIR      36   9  32 NE3       30.33S
6HR MIN TEMP:  12; 6HR MAX TEMP:  36;

SOCORRO        FAIR      36   7  29 N12       30.32F WCI  28
6HR MIN TEMP:  17; 6HR MAX TEMP:  36;


$$
NMZ524>526-539-540-231900-
SOUTHCENTRAL MOUNTAINS

CITY           SKY/WX    TMP DP  RH WIND       PRES   REMARKS
RUIDOSO        NOT AVBL

$$
NMZ527>531-231900-
NORTHEAST HIGHLANDS/NORTHEAST PLAINS

CITY           SKY/WX    TMP DP  RH WIND       PRES   REMARKS
LAS VEGAS      FAIR      38  -7  14 E8        30.22R WCI  32
6HR MIN TEMP:  12; 6HR MAX TEMP:  38;

RATON          FAIR      38  -1  19 S7        30.22F WCI  33
6HR MIN TEMP:   6; 6HR MAX TEMP:  38;

CLAYTON        FAIR      39   7  26 NE9       30.27S WCI  33
6HR MIN TEMP:  17; 6HR MAX TEMP:  39;


$$
NMZ532>537-231900-
EASTCENTRAL PLAINS

CITY           SKY/WX    TMP DP  RH WIND       PRES   REMARKS
SANTA ROSA     FAIR     N/A N/A N/A N8        30.26
TUCUMCARI      FAIR      38   4  24 VRB5      30.27S WCI  34
6HR MIN TEMP:  15; 6HR MAX TEMP:  38;

CANNON AFB     FAIR      46   4  17 W12       30.26F
6HR MIN TEMP:  22; 6HR MAX TEMP:  46;

CLOVIS AIRPORT FAIR      47   5  18 W10       30.26F

$$
NMZ028-029-538-231900-
SOUTHEAST PLAINS

CITY           SKY/WX    TMP DP  RH WIND       PRES   REMARKS
ROSWELL        FAIR      46   7  20 VRB3      30.26F
6HR MIN TEMP:  22; 6HR MAX TEMP:  46;

ARTESIA        FAIR      45   5  19 NE5       30.28F
CARLSBAD       FAIR      47   7  19 VRB5      30.27F
6HR MIN TEMP:  18; 6HR MAX TEMP:  47;

HOBBS          SUNNY     52   1  12 S10G18    30.28S


$$




USA.gov is the U.S. government's official web portal to all federal, state and local government web resources and services.